Weather History for KGPI - January, 2015

Change the Weather History Date:

Saturday, January 10, 2015

  Actual Average Record
Temperature  
Mean Temperature 15 °F 23 °F  
Max Temperature 22 °F 30 °F 48 °F (1923)
Min Temperature 8 °F 16 °F -22 °F (1909)
Degree Days  
Heating Degree Days 50 42  
Month to date heating degree days 494 426  
Since 1 July heating degree days 3721 3940  
Cooling Degree Days 0 0  
Month to date cooling degree days 0 0  
Year to date cooling degree days 0 0  
Moisture  
Dew Point 15 °F    
Average Humidity 80    
Maximum Humidity 92    
Minimum Humidity 68    
Precipitation  
Precipitation 0.14 in 0.05 in 0.34 in (2006)
Month to date precipitation 1.74 0.50  
Year to date precipitation 1.74 0.50  
Snow  
Snow 2.00 in - - ()
Month to date snowfall 23.9  
Year to date snowfall 23.9  
Since 1 July snowfall 50.4  
Snow Depth 15.00 in    
Sea Level Pressure  
Sea Level Pressure 30.08 in    
Wind  
Wind Speed 0 mph (West)    
Max Wind Speed 5 mph    
Max Gust Speed 6 mph    
Visibility 4 miles    
Events Fog , Snow    
T = Trace of Precipitation, MM = Missing Value Source: NWS Daily Summary

Daily Weather History Graph

Daily Weather History Graph

Search for Another Location

Airport or City:

Trip Planner

Search our weather history database for the weather conditions in past years. The results will help you decide how hot, cold, wet, or windy it might be!

Date:

Astronomy

Jan. 10, 2015 Rise Set
Actual Time 8:26 AM MST 5:03 PM MST
Civil Twilight 7:50 AM MST 5:39 PM MST
Nautical Twilight 7:10 AM MST 6:18 PM MST
Astronomical Twilight 6:33 AM MST 6:56 PM MST
Moon 11:03 PM MST (1/10) 10:48 AM MST (1/10)
Length of Visible Light 9h 49m
Length of Day
8h 37m
Waning Gibbous, 74% of the Moon is Illuminated
Jan 10
Waning Gibbous
Jan 13
Last Quarter
Jan 20
New
Jan 26
First Quarter
Feb 3
Full

Hourly Weather History & Observations

Time (MST) Temp. Windchill Dew Point Humidity Pressure Visibility Wind Dir Wind Speed Gust Speed Precip Events Conditions
12:55 AM 10.0 °F 1.8 °F 6.1 °F 84% 30.27 in 10.0 mi West 4.6 mph - N/A   Overcast
1:55 AM 12.0 °F - 7.0 °F 80% 30.25 in 10.0 mi Calm Calm - N/A   Overcast
2:55 AM 14.0 °F - 8.1 °F 77% 30.25 in 10.0 mi Calm Calm - N/A   Overcast
3:55 AM 15.1 °F - 10.0 °F 80% 30.25 in 10.0 mi Calm Calm - N/A   Overcast
4:21 AM 16.0 °F - 10.0 °F 77% 30.09 in 10.0 mi Calm Calm - N/A   Overcast
4:55 AM 16.0 °F - 10.9 °F 81% 30.23 in 10.0 mi Calm Calm - N/A   Overcast
5:55 AM 16.0 °F - 10.9 °F 81% 30.21 in 10.0 mi Calm Calm - N/A   Overcast
6:55 AM 17.1 °F - 12.0 °F 81% 30.20 in 10.0 mi Calm Calm - N/A   Overcast
7:55 AM 17.1 °F - 12.0 °F 81% 30.20 in 10.0 mi Calm Calm - N/A   Overcast
8:55 AM 18.0 °F - 12.0 °F 78% 30.21 in 10.0 mi Calm Calm - N/A   Overcast
9:55 AM 19.0 °F - 12.0 °F 74% 30.20 in 10.0 mi Calm Calm - N/A   Overcast
10:55 AM 19.9 °F - 12.0 °F 71% 30.20 in 10.0 mi Calm Calm - N/A   Overcast
11:55 AM 21.0 °F - 12.0 °F 68% 30.17 in 10.0 mi Calm Calm - N/A   Overcast
12:55 PM 21.9 °F - 12.0 °F 66% 30.14 in 10.0 mi Calm Calm - N/A   Overcast
1:30 PM 21.9 °F - 12.9 °F 68% 29.98 in 1.5 mi Calm Calm - 0.00 in Snow Light Snow
1:47 PM 21.0 °F - 15.1 °F 78% 29.98 in 1.0 mi Calm Calm - 0.01 in Snow Light Snow
1:55 PM 21.0 °F - 16.0 °F 81% 30.11 in 1.0 mi Calm Calm - 0.01 in Snow Light Snow
2:08 PM 19.9 °F - 16.0 °F 85% 29.97 in 0.5 mi Calm Calm - 0.01 in Fog , Snow Light Snow
2:27 PM 19.9 °F - 17.1 °F 89% 29.97 in 0.2 mi Calm Calm - 0.03 in Fog , Snow Snow
2:34 PM 19.9 °F - 17.1 °F 89% 29.97 in 0.5 mi Calm Calm - 0.03 in Fog , Snow Snow
2:55 PM 19.9 °F - 17.1 °F 89% 30.11 in 0.5 mi Calm Calm - 0.04 in Fog , Snow Snow
3:20 PM 19.9 °F - 17.1 °F 89% 29.97 in 0.8 mi Calm Calm - 0.02 in Snow Light Snow
3:30 PM 19.9 °F - 17.1 °F 89% 29.97 in 1.0 mi Calm Calm - 0.02 in Snow Light Snow
3:50 PM 19.4 °F - 17.6 °F 93% 29.97 in 0.5 mi Calm Calm - 0.03 in Fog , Snow Snow
3:55 PM 19.9 °F - 18.0 °F 92% 30.11 in 0.8 mi Calm Calm - 0.03 in Snow Light Snow
4:21 PM 21.0 °F - 18.0 °F 88% 29.97 in 1.5 mi Calm Calm - 0.01 in Snow Light Snow
4:34 PM 19.9 °F - 18.0 °F 92% 29.97 in 1.0 mi Calm Calm - 0.01 in Snow Light Snow
4:44 PM 19.9 °F - 18.0 °F 92% 29.97 in 1.0 mi Calm Calm - 0.01 in Snow Light Snow
4:55 PM 19.9 °F - 18.0 °F 92% 30.12 in 1.8 mi Calm Calm - 0.01 in Snow Light Snow
5:01 PM 19.9 °F - 18.0 °F 92% 29.98 in 3.0 mi Calm Calm - 0.00 in Snow Light Snow
5:10 PM 19.9 °F - 18.0 °F 92% 29.98 in 1.8 mi Calm Calm - 0.00 in Snow Light Snow
5:21 PM 19.9 °F - 18.0 °F 92% 29.98 in 2.5 mi Calm Calm - 0.00 in Snow Light Snow
5:55 PM 19.9 °F - 18.0 °F 92% 30.12 in 2.5 mi Calm Calm - 0.01 in Snow Light Snow
6:17 PM 19.9 °F - 18.0 °F 92% 29.99 in 1.8 mi Calm Calm - 0.01 in Snow Light Snow
6:43 PM 21.0 °F - 18.0 °F 88% 29.99 in 2.0 mi Calm Calm - 0.01 in Snow Light Snow
6:55 PM 19.9 °F - 18.0 °F 92% 30.12 in 1.8 mi Calm Calm - 0.01 in Snow Light Snow
7:03 PM 19.9 °F - 19.0 °F 96% 29.99 in 2.0 mi Calm Calm - 0.01 in Snow Light Snow
7:16 PM 19.9 °F - 18.0 °F 92% 29.99 in 1.8 mi Calm Calm - 0.01 in Snow Light Snow
7:55 PM 19.9 °F - 18.0 °F 92% 30.12 in 1.5 mi Calm Calm - 0.02 in Snow Light Snow
8:12 PM 21.0 °F - 18.0 °F 88% 29.98 in 2.5 mi Calm Calm - 0.01 in Snow Light Snow
8:19 PM 21.0 °F - 19.0 °F 92% 29.99 in 2.5 mi Calm Calm - 0.01 in Snow Light Snow
8:37 PM 21.0 °F - 19.0 °F 92% 29.99 in 3.0 mi Calm Calm - 0.01 in Snow Light Snow
8:55 PM 21.0 °F - 19.0 °F 92% 30.11 in 4.0 mi Calm Calm - 0.01 in Snow Light Snow
9:55 PM 19.9 °F - 18.0 °F 92% 30.12 in 4.0 mi Calm Calm - 0.00 in Snow Light Snow
10:55 PM 21.0 °F - 19.0 °F 92% 30.13 in 8.0 mi Calm Calm - 0.00 in   Overcast
11:55 PM 21.9 °F - 19.0 °F 89% 30.14 in 10.0 mi Calm Calm - N/A   Overcast